When you browse on this site, cookies collect data to enhance your experience and personalize the content and advertising you see.
Visit our Privacy Policy to learn more. By continuing to use the site, you agree to this use of cookies and data.
  • In France
  • List of Countries
  • For 7 days
  • Water Temperature
  • Weather Map
  • Weather Widgets
  • user-avatar
    Login

    Hourly Weather Albany

    Today, 24 August, Saturday

    Time Temperature Precipitation Wind Pressure Humidity
    00:00 +8°C° 0 mm 3 mps 766 mmHg 85%
    01:00 +8°C° 0 mm 3 mps 766 mmHg 84%
    02:00 +7°C° 0 mm 3 mps 765 mmHg 84%
    03:00 +7°C° 0 mm 2 mps 766 mmHg 83%
    04:00 +7°C° 0 mm 2 mps 766 mmHg 82%
    05:00 +8°C° 0 mm 1 mps 766 mmHg 82%
    06:00 +9°C° 0 mm 1 mps 767 mmHg 81%
    07:00 +9°C° 0 mm 1 mps 767 mmHg 81%
    08:00 +10°C° 0 mm 1 mps 767 mmHg 79%
    09:00 +11°C° 0 mm 1 mps 767 mmHg 75%
    10:00 +12°C° 0 mm 1 mps 767 mmHg 71%
    11:00 +13°C° 0 mm 1 mps 768 mmHg 67%
    12:00 +13°C° 0 mm 1 mps 767 mmHg 67%
    13:00 +13°C° 0 mm 1 mps 767 mmHg 67%
    14:00 +13°C° 0 mm 1 mps 766 mmHg 67%
    15:00 +12°C° 0 mm 2 mps 766 mmHg 69%
    16:00 +12°C° 0 mm 2 mps 766 mmHg 72%
    17:00 +12°C° 0 mm 2 mps 767 mmHg 75%
    18:00 +10°C° 0 mm 2 mps 767 mmHg 75%
    19:00 +10°C° 0 mm 2 mps 767 mmHg 76%
    20:00 +10°C° 0 mm 2 mps 767 mmHg 77%
    21:00 +10°C° 0 mm 2 mps 767 mmHg 77%
    22:00 +10°C° 0 mm 2 mps 768 mmHg 77%
    23:00 +10°C° 0 mm 2 mps 768 mmHg 77%

    Tomorrow, 25 August, Sunday

    Time Temperature Precipitation Wind Pressure Humidity
    00:00 +10°C° 0 mm 2 mps 767 mmHg 76%
    01:00 +10°C° 0 mm 2 mps 767 mmHg 75%
    02:00 +10°C° 0 mm 2 mps 766 mmHg 74%
    03:00 +10°C° 0 mm 2 mps 766 mmHg 75%
    04:00 +9°C° 0 mm 2 mps 767 mmHg 77%
    05:00 +9°C° 0 mm 2 mps 767 mmHg 78%
    06:00 +9°C° 0 mm 2 mps 767 mmHg 79%
    07:00 +9°C° 0 mm 2 mps 767 mmHg 80%
    08:00 +9°C° 0 mm 2 mps 766 mmHg 82%
    09:00 +12°C° 0 mm 2 mps 767 mmHg 74%
    10:00 +14°C° 0 mm 2 mps 767 mmHg 66%
    11:00 +15°C° 0 mm 2 mps 767 mmHg 58%
    12:00 +15°C° 0 mm 1 mps 766 mmHg 58%
    13:00 +15°C° 0 mm 1 mps 766 mmHg 59%
    14:00 +15°C° 0 mm 1 mps 765 mmHg 59%
    15:00 +14°C° 0 mm 1 mps 765 mmHg 62%
    16:00 +14°C° 0 mm 1 mps 766 mmHg 65%
    17:00 +14°C° 0 mm 1 mps 766 mmHg 69%
    18:00 +12°C° 0 mm 1 mps 766 mmHg 72%
    19:00 +11°C° 0 mm 1 mps 766 mmHg 75%
    20:00 +10°C° 0 mm 1 mps 766 mmHg 78%
    21:00 +9°C° 0 mm 1 mps 766 mmHg 81%
    22:00 +9°C° 0 mm 1 mps 767 mmHg 84%
    23:00 +8°C° 0 mm 1 mps 767 mmHg 87%

    Day after tomorrow, 26 August, Monday

    Time Temperature Precipitation Wind Pressure Humidity
    00:00 +7°C° 0 mm 2 mps 766 mmHg 88%
    01:00 +7°C° 0 mm 2 mps 766 mmHg 88%
    02:00 +7°C° 0 mm 2 mps 766 mmHg 89%
    03:00 +7°C° 0 mm 2 mps 766 mmHg 89%
    04:00 +7°C° 0 mm 2 mps 766 mmHg 89%
    05:00 +6°C° 0 mm 2 mps 766 mmHg 89%
    06:00 +7°C° 0 mm 2 mps 766 mmHg 86%
    07:00 +8°C° 0 mm 2 mps 766 mmHg 84%
    08:00 +9°C° 0 mm 2 mps 766 mmHg 81%
    09:00 +12°C° 0 mm 2 mps 766 mmHg 74%
    10:00 +14°C° 0 mm 2 mps 766 mmHg 67%
    11:00 +16°C° 0 mm 2 mps 766 mmHg 59%
    12:00 +17°C° 0 mm 2 mps 766 mmHg 58%
    13:00 +17°C° 0 mm 2 mps 765 mmHg 57%
    14:00 +18°C° 0 mm 2 mps 765 mmHg 55%
    15:00 +18°C° 0 mm 1 mps 765 mmHg 61%
    16:00 +16°C° 0 mm 1 mps 765 mmHg 67%
    17:00 +15°C° 0 mm 1 mps 765 mmHg 72%
    18:00 +13°C° 0 mm 1 mps 765 mmHg 77%
    19:00 +12°C° 0 mm 1 mps 765 mmHg 81%
    20:00 +10°C° 0 mm 1 mps 765 mmHg 86%
    21:00 +9°C° 0 mm 2 mps 765 mmHg 87%
    22:00 +9°C° 0 mm 2 mps 765 mmHg 87%
    23:00 +8°C° 0 mm 2 mps 765 mmHg 88%

    27 August, Tuesday

    Time Temperature Precipitation Wind Pressure Humidity
    00:00 +8°C° 0 mm 2 mps 765 mmHg 87%
    01:00 +8°C° 0 mm 2 mps 765 mmHg 86%
    02:00 +8°C° 0 mm 2 mps 764 mmHg 85%
    03:00 +8°C° 0 mm 2 mps 764 mmHg 84%
    04:00 +8°C° 0 mm 2 mps 764 mmHg 83%
    05:00 +8°C° 0 mm 2 mps 764 mmHg 81%
    06:00 +8°C° 0 mm 2 mps 764 mmHg 79%
    07:00 +9°C° 0 mm 2 mps 764 mmHg 77%
    08:00 +10°C° 0 mm 2 mps 764 mmHg 75%
    09:00 +13°C° 0 mm 2 mps 764 mmHg 69%
    10:00 +15°C° 0 mm 2 mps 764 mmHg 62%
    11:00 +17°C° 0 mm 3 mps 764 mmHg 56%
    12:00 +17°C° 0 mm 2 mps 763 mmHg 54%
    13:00 +18°C° 0 mm 2 mps 763 mmHg 52%
    14:00 +19°C° 0 mm 2 mps 762 mmHg 50%
    15:00 +18°C° 0 mm 2 mps 762 mmHg 56%
    16:00 +17°C° 0 mm 2 mps 762 mmHg 61%
    17:00 +16°C° 0 mm 2 mps 762 mmHg 66%
    18:00 +14°C° 0 mm 3 mps 762 mmHg 68%
    19:00 +12°C° 0 mm 3 mps 762 mmHg 70%
    20:00 +11°C° 0 mm 4 mps 762 mmHg 72%
    21:00 +11°C° 0 mm 4 mps 762 mmHg 74%
    22:00 +10°C° 0 mm 4 mps 761 mmHg 75%
    23:00 +9°C° 0 mm 5 mps 761 mmHg 76%

    28 August, Wednesday

    Time Temperature Precipitation Wind Pressure Humidity
    00:00 +9°C° 0 mm 5 mps 760 mmHg 74%
    01:00 +8°C° 0 mm 5 mps 760 mmHg 71%
    02:00 +8°C° 0 mm 5 mps 760 mmHg 69%
    03:00 +8°C° 0 mm 5 mps 759 mmHg 66%
    04:00 +8°C° 0 mm 5 mps 759 mmHg 63%
    05:00 +8°C° 0 mm 4 mps 759 mmHg 59%
    06:00 +8°C° 0 mm 4 mps 759 mmHg 60%
    07:00 +10°C° 0 mm 4 mps 759 mmHg 60%
    08:00 +11°C° 0 mm 4 mps 758 mmHg 60%
    09:00 +14°C° 0 mm 4 mps 758 mmHg 58%
    10:00 +17°C° 0 mm 4 mps 758 mmHg 56%
    11:00 +20°C° 0 mm 4 mps 757 mmHg 54%
    12:00 +21°C° 0 mm 4 mps 757 mmHg 54%
    13:00 +22°C° 0 mm 5 mps 756 mmHg 55%
    14:00 +23°C° 0 mm 5 mps 755 mmHg 56%
    15:00 +22°C° 0 mm 4 mps 755 mmHg 61%
    16:00 +22°C° 0 mm 4 mps 755 mmHg 67%
    17:00 +21°C° 0 mm 3 mps 755 mmHg 73%
    18:00 +19°C° 0 mm 3 mps 755 mmHg 77%
    19:00 +17°C° 0 mm 3 mps 755 mmHg 81%
    20:00 +16°C° 0 mm 2 mps 755 mmHg 85%
    21:00 +15°C° 0 mm 2 mps 755 mmHg 87%
    22:00 +14°C° 0 mm 3 mps 755 mmHg 89%
    23:00 +13°C° 0 mm 3 mps 755 mmHg 90%

    29 August, Thursday

    Time Temperature Precipitation Wind Pressure Humidity
    00:00 +13°C° 0 mm 3 mps 754 mmHg 91%
    01:00 +12°C° 0 mm 3 mps 754 mmHg 91%
    02:00 +12°C° 0 mm 3 mps 754 mmHg 91%
    03:00 +12°C° 0 mm 3 mps 753 mmHg 91%
    04:00 +12°C° 0 mm 2 mps 753 mmHg 91%
    05:00 +12°C° 0 mm 2 mps 752 mmHg 91%
    06:00 +12°C° 0 mm 3 mps 752 mmHg 88%
    07:00 +12°C° 0 mm 4 mps 752 mmHg 85%
    08:00 +13°C° 0 mm 4 mps 752 mmHg 82%
    09:00 +15°C° 0 mm 5 mps 752 mmHg 78%
    10:00 +17°C° 0 mm 5 mps 752 mmHg 73%
    11:00 +20°C° 0 mm 6 mps 751 mmHg 68%
    12:00 +20°C° 0.1 mm 6 mps 751 mmHg 70%
    13:00 +18°C° 0.1 mm 7 mps 750 mmHg 71%
    14:00 +18°C° 0.1 mm 7 mps 750 mmHg 72%
    15:00 +18°C° 0.1 mm 7 mps 749 mmHg 73%
    16:00 +17°C° 0.1 mm 6 mps 749 mmHg 75%
    17:00 +17°C° 0.1 mm 6 mps 748 mmHg 76%
    18:00 +16°C° 0.2 mm 6 mps 748 mmHg 80%
    19:00 +15°C° 0.2 mm 6 mps 748 mmHg 84%
    20:00 +14°C° 0.2 mm 7 mps 748 mmHg 89%
    21:00 +14°C° 1 mm 7 mps 748 mmHg 90%
    22:00 +14°C° 1 mm 7 mps 747 mmHg 92%
    23:00 +13°C° 1 mm 8 mps 747 mmHg 93%
    Show more